| time (UTC) | temp F | wind direction | speed MPH | gust MPH | rain 1hr in | rain 24hr in | rain mn in | humidity % | barometer mb |
| 20260906012039 | 72 | 299 | 0.0 | 0.0 | 0.00 | 0.16 | 0.16 | 93 | 1004.3 |
| 20260906011539 | 72 | 299 | 0.0 | 0.0 | 0.00 | 0.16 | 0.16 | 93 | 1004.2 |
| 20260906011039 | 72 | 299 | 0.0 | 0.0 | 0.00 | 0.16 | 0.16 | 92 | 1004.3 |
| 20260906010539 | 73 | 299 | 0.0 | 0.0 | 0.00 | 0.16 | 0.16 | 92 | 1004.3 |
| 20260906010038 | 73 | 299 | 0.0 | 1.0 | 0.00 | 0.16 | 0.16 | 92 | 1004.2 |
| 20260906005539 | 73 | 299 | 0.0 | 1.0 | 0.00 | 0.16 | 0.16 | 92 | 1004.0 |
| 20260906005041 | 73 | 299 | 0.0 | 1.0 | 0.00 | 0.16 | 0.16 | 92 | 1004.1 |
| 20260906004541 | 73 | 300 | 0.0 | 1.0 | 0.00 | 0.16 | 0.16 | 92 | 1004.0 |
| 20260906004038 | 73 | 301 | 0.0 | 1.0 | 0.00 | 0.16 | 0.16 | 92 | 1004.1 |
| 20260906003537 | 73 | 301 | 0.0 | 0.0 | 0.00 | 0.16 | 0.16 | 92 | 1003.9 |
| 20260906003037 | 74 | 309 | 0.0 | 1.0 | 0.00 | 0.16 | 0.16 | 91 | 1003.9 |
| 20260906002538 | 74 | 309 | 0.0 | 1.0 | 0.00 | 0.16 | 0.16 | 91 | 1003.8 |
| 20260906002037 | 74 | 299 | 0.0 | 1.0 | 0.00 | 0.16 | 0.16 | 91 | 1003.8 |
| 20260906001539 | 74 | 338 | 0.0 | 1.0 | 0.00 | 0.16 | 0.16 | 91 | 1003.7 |
| 20260906001037 | 74 | 338 | 0.0 | 1.0 | 0.00 | 0.16 | 0.16 | 91 | 1003.8 |
| 20260906000537 | 74 | 292 | 0.0 | 1.0 | 0.00 | 0.16 | 0.16 | 90 | 1003.7 |
| 20260906000041 | 74 | 292 | 0.0 | 1.0 | 0.00 | 0.16 | 0.16 | 90 | 1003.7 |
| 20260905235536 | 74 | 292 | 0.0 | 1.0 | 0.00 | 0.16 | 0.16 | 90 | 1003.7 |
| 20260905235037 | 75 | 292 | 0.0 | 1.0 | 0.00 | 0.16 | 0.16 | 90 | 1003.7 |
| 20260905234537 | 75 | 292 | 0.0 | 1.0 | 0.00 | 0.16 | 0.16 | 90 | 1003.8 |
| 20260905234036 | 75 | 292 | 0.0 | 1.0 | 0.00 | 0.16 | 0.16 | 90 | 1003.8 |
| 20260905233536 | 75 | 292 | 0.0 | 1.0 | 0.00 | 0.16 | 0.16 | 90 | 1003.8 |
| 20260905233040 | 75 | 291 | 0.0 | 1.0 | 0.00 | 0.16 | 0.16 | 89 | 1003.8 |
| 20260905232535 | 75 | 302 | 0.0 | 2.0 | 0.00 | 0.16 | 0.16 | 89 | 1003.8 |
| 20260905232035 | 75 | 302 | 0.0 | 3.0 | 0.00 | 0.16 | 0.16 | 89 | 1003.8 |
| 20260905231543 | 75 | 289 | 0.0 | 3.0 | 0.00 | 0.16 | 0.16 | 89 | 1003.7 |
| 20260905231034 | 75 | 311 | 0.0 | 1.0 | 0.00 | 0.16 | 0.16 | 89 | 1003.8 |
| 20260905230539 | 75 | 311 | 0.0 | 1.0 | 0.00 | 0.16 | 0.16 | 89 | 1003.8 |
| 20260905230046 | 76 | 311 | 0.0 | 2.0 | 0.00 | 0.16 | 0.16 | 88 | 1003.5 |
| 20260905225538 | 76 | 311 | 0.0 | 2.0 | 0.00 | 0.16 | 0.16 | 88 | 1003.5 |
| 20260905225036 | 76 | 304 | 0.0 | 1.0 | 0.00 | 0.16 | 0.16 | 88 | 1003.5 |
| 20260905224535 | 76 | 305 | 0.0 | 2.0 | 0.00 | 0.16 | 0.16 | 87 | 1003.6 |
| 20260905224034 | 77 | 305 | 0.0 | 2.0 | 0.00 | 0.16 | 0.16 | 86 | 1003.6 |
| 20260905223534 | 77 | 304 | 0.0 | 1.0 | 0.00 | 0.16 | 0.16 | 85 | 1003.7 |
| 20260905223035 | 78 | 233 | 0.0 | 0.0 | 0.00 | 0.16 | 0.16 | 84 | 1003.6 |
| 20260905222537 | 78 | 233 | 0.0 | 0.0 | 0.00 | 0.16 | 0.16 | 85 | 1003.5 |
| 20260905222033 | 77 | 233 | 0.0 | 0.0 | 0.00 | 0.16 | 0.16 | 85 | 1003.5 |
| 20260905221536 | 77 | 233 | 0.0 | 0.0 | 0.00 | 0.16 | 0.16 | 85 | 1003.5 |
| 20260905221033 | 77 | 233 | 0.0 | 2.0 | 0.00 | 0.16 | 0.16 | 85 | 1003.6 |
| 20260905220533 | 77 | 233 | 0.0 | 2.0 | 0.00 | 0.16 | 0.16 | 85 | 1003.5 |
| 20260905220033 | 77 | 264 | 0.0 | 1.0 | 0.00 | 0.16 | 0.16 | 85 | 1003.4 |
| 20260905215532 | 77 | 232 | 0.0 | 2.0 | 0.00 | 0.16 | 0.16 | 86 | 1003.3 |
| 20260905215032 | 76 | 238 | 0.0 | 2.0 | 0.00 | 0.16 | 0.16 | 86 | 1003.2 |
| 20260905214535 | 76 | 207 | 1.0 | 2.0 | 0.00 | 0.16 | 0.16 | 86 | 1003.2 |
| 20260905214033 | 76 | 223 | 0.0 | 2.0 | 0.00 | 0.16 | 0.16 | 86 | 1003.4 |
| 20260905213532 | 76 | 235 | 1.0 | 2.0 | 0.00 | 0.16 | 0.16 | 86 | 1003.3 |
| 20260905213031 | 76 | 240 | 0.0 | 3.0 | 0.00 | 0.16 | 0.16 | 86 | 1003.4 |
| 20260905212532 | 76 | 232 | 1.0 | 3.0 | 0.00 | 0.16 | 0.16 | 86 | 1003.4 |
| 20260905212031 | 76 | 229 | 0.0 | 4.0 | 0.00 | 0.16 | 0.16 | 86 | 1003.4 |
| 20260905211537 | 76 | 232 | 1.0 | 4.0 | 0.00 | 0.16 | 0.16 | 86 | 1003.4 |
| 20260905211032 | 76 | 235 | 1.0 | 4.0 | 0.00 | 0.16 | 0.16 | 86 | 1003.2 |
| 20260905210532 | 76 | 231 | 1.0 | 4.0 | 0.00 | 0.16 | 0.16 | 85 | 1003.2 |
| 20260905210030 | 77 | 225 | 0.0 | 4.0 | 0.00 | 0.16 | 0.16 | 86 | 1003.2 |
| 20260905205530 | 76 | 218 | 2.0 | 5.0 | 0.00 | 0.16 | 0.16 | 85 | 1003.1 |
| 20260905205031 | 76 | 224 | 2.0 | 5.0 | 0.00 | 0.16 | 0.16 | 85 | 1003.2 |
| 20260905204531 | 76 | 222 | 0.0 | 5.0 | 0.00 | 0.16 | 0.16 | 86 | 1003.2 |
| 20260905204030 | 75 | 234 | 1.0 | 6.0 | 0.00 | 0.16 | 0.16 | 86 | 1003.2 |
| 20260905203530 | 75 | 216 | 2.0 | 8.0 | 0.00 | 0.16 | 0.16 | 86 | 1003.2 |
| 20260905203029 | 75 | 233 | 2.0 | 8.0 | 0.00 | 0.16 | 0.16 | 87 | 1003.3 |
| 20260905202529 | 75 | 233 | 1.0 | 4.0 | 0.00 | 0.16 | 0.16 | 87 | 1003.2 |
| 20260905202029 | 75 | 236 | 1.0 | 7.0 | 0.00 | 0.16 | 0.16 | 87 | 1003.3 |
| 20260905201529 | 75 | 221 | 3.0 | 8.0 | 0.00 | 0.16 | 0.16 | 87 | 1003.3 |
| 20260905201029 | 75 | 239 | 3.0 | 8.0 | 0.00 | 0.16 | 0.16 | 87 | 1003.4 |
| 20260905200530 | 75 | 207 | 1.0 | 7.0 | 0.00 | 0.16 | 0.16 | 88 | 1003.3 |
| 20260905200029 | 75 | 232 | 2.0 | 7.0 | 0.00 | 0.16 | 0.16 | 88 | 1003.3 |
| 20260905195528 | 75 | 233 | 3.0 | 7.0 | 0.00 | 0.16 | 0.16 | 88 | 1003.3 |
| 20260905195030 | 75 | 246 | 3.0 | 7.0 | 0.00 | 0.16 | 0.16 | 88 | 1003.3 |
| 20260905194528 | 75 | 234 | 3.0 | 6.0 | 0.00 | 0.16 | 0.16 | 88 | 1003.5 |
| 20260905194028 | 75 | 199 | 2.0 | 9.0 | 0.00 | 0.16 | 0.16 | 89 | 1003.4 |
| 20260905193529 | 75 | 217 | 4.0 | 9.0 | 0.00 | 0.16 | 0.16 | 89 | 1003.5 |
| 20260905193028 | 75 | 229 | 4.0 | 8.0 | 0.00 | 0.16 | 0.16 | 89 | 1003.6 |
| 20260905192529 | 75 | 239 | 4.0 | 9.0 | 0.00 | 0.16 | 0.16 | 89 | 1003.5 |
| 20260905192027 | 75 | 233 | 4.0 | 9.0 | 0.00 | 0.16 | 0.16 | 90 | 1003.5 |
| 20260905191528 | 75 | 237 | 4.0 | 8.0 | 0.00 | 0.16 | 0.16 | 90 | 1003.5 |
| 20260905191027 | 75 | 233 | 2.0 | 6.0 | 0.00 | 0.16 | 0.16 | 92 | 1003.6 |
| 20260905190526 | 74 | 236 | 2.0 | 5.0 | 0.00 | 0.16 | 0.16 | 92 | 1003.5 |
| 20260905190027 | 74 | 210 | 0.0 | 4.0 | 0.00 | 0.16 | 0.16 | 92 | 1003.6 |
| 20260905185525 | 73 | 242 | 0.0 | 6.0 | 0.00 | 0.16 | 0.16 | 92 | 1003.8 |
| 20260905185027 | 73 | 153 | 2.0 | 6.0 | 0.00 | 0.16 | 0.16 | 92 | 1003.8 |
| 20260905184526 | 73 | 177 | 2.0 | 8.0 | 0.00 | 0.16 | 0.16 | 93 | 1003.9 |
| 20260905184026 | 73 | 231 | 2.0 | 7.0 | 0.00 | 0.16 | 0.16 | 92 | 1004.0 |
| 20260905183525 | 73 | 216 | 4.0 | 10.0 | 0.00 | 0.16 | 0.16 | 92 | 1004.0 |
| 20260905183025 | 74 | 233 | 4.0 | 10.0 | 0.00 | 0.16 | 0.16 | 92 | 1004.2 |
| 20260905182528 | 75 | 221 | 2.0 | 6.0 | 0.00 | 0.16 | 0.16 | 93 | 1003.9 |
| 20260905182025 | 74 | 229 | 3.0 | 5.0 | 0.00 | 0.16 | 0.16 | 93 | 1004.0 |
| 20260905181526 | 74 | 37 | 0.0 | 3.0 | 0.00 | 0.16 | 0.16 | 93 | 1003.8 |
| 20260905181024 | 74 | 13 | 0.0 | 3.0 | 0.00 | 0.16 | 0.16 | 93 | 1003.7 |
| 20260905180525 | 74 | 124 | 0.0 | 4.0 | 0.01 | 0.16 | 0.16 | 93 | 1003.5 |
| 20260905180025 | 74 | 47 | 2.0 | 4.0 | 0.02 | 0.16 | 0.16 | 93 | 1003.4 |
| 20260905175624 | 74 | 336 | 1.0 | 3.0 | 0.03 | 0.16 | 0.16 | 93 | 1003.4 |
| 20260905175024 | 74 | 15 | 0.0 | 4.0 | 0.05 | 0.16 | 0.16 | 93 | 1003.5 |
| 20260905174524 | 74 | 80 | 0.0 | 4.0 | 0.07 | 0.16 | 0.16 | 93 | 1003.2 |
| 20260905174024 | 74 | 106 | 0.0 | 1.0 | 0.10 | 0.16 | 0.16 | 93 | 1003.1 |
| 20260905173523 | 74 | 103 | 0.0 | 1.0 | 0.14 | 0.16 | 0.16 | 93 | 1003.2 |
| 20260905173022 | 74 | 103 | 0.0 | 1.0 | 0.16 | 0.16 | 0.16 | 93 | 1003.3 |
| 20260905172522 | 73 | 102 | 0.0 | 3.0 | 0.16 | 0.16 | 0.16 | 93 | 1003.7 |
| 20260905172022 | 73 | 71 | 0.0 | 4.0 | 0.16 | 0.16 | 0.16 | 92 | 1003.8 |
| 20260905171532 | 73 | 68 | 1.0 | 4.0 | 0.16 | 0.16 | 0.16 | 92 | 1003.8 |
| 20260905171022 | 73 | 81 | 0.0 | 1.0 | 0.16 | 0.16 | 0.16 | 92 | 1003.8 |
| 20260905170522 | 73 | 107 | 0.0 | 1.0 | 0.15 | 0.15 | 0.15 | 91 | 1004.0 |
| 20260905170021 | 73 | 103 | 0.0 | 1.0 | 0.14 | 0.14 | 0.14 | 90 | 1004.2 |
| 20260905165520 | 73 | 90 | 0.0 | 1.0 | 0.12 | 0.12 | 0.12 | 89 | 1004.4 |
| 20260905165021 | 74 | 72 | 0.0 | 4.0 | 0.11 | 0.11 | 0.11 | 88 | 1004.5 |
| 20260905164524 | 74 | 293 | 0.0 | 11.0 | 0.08 | 0.08 | 0.08 | 86 | 1005.0 |
| 20260905164020 | 75 | 233 | 3.0 | 11.0 | 0.05 | 0.05 | 0.05 | 84 | 1005.7 |
| 20260905163523 | 77 | 260 | 5.0 | 10.0 | 0.02 | 0.02 | 0.02 | 83 | 1006.1 |
| 20260905163018 | 77 | 246 | 1.0 | 3.0 | 0.00 | 0.00 | 0.00 | 83 | 1005.9 |
| 20260905162518 | 77 | 243 | 0.0 | 2.0 | 0.00 | 0.00 | 0.00 | 82 | 1005.5 |
| 20260905162018 | 78 | 290 | 0.0 | 3.0 | 0.00 | 0.00 | 0.00 | 81 | 1005.1 |
| 20260905161517 | 78 | 53 | 1.0 | 4.0 | 0.00 | 0.00 | 0.00 | 81 | 1005.0 |
| 20260905161018 | 78 | 15 | 1.0 | 5.0 | 0.00 | 0.00 | 0.00 | 81 | 1005.1 |
| 20260905160517 | 78 | 14 | 2.0 | 7.0 | 0.00 | 0.00 | 0.00 | 80 | 1005.1 |
| 20260905160025 | 78 | 75 | 0.0 | 7.0 | 0.00 | 0.00 | 0.00 | 81 | 1005.1 |
| 20260905155520 | 78 | 58 | 1.0 | 6.0 | 0.00 | 0.00 | 0.00 | 80 | 1005.0 |
| 20260905155015 | 79 | 50 | 1.0 | 5.0 | 0.00 | 0.00 | 0.00 | 79 | 1005.0 |
| 20260905154516 | 79 | 31 | 2.0 | 5.0 | 0.00 | 0.00 | 0.00 | 79 | 1005.0 |
| 20260905154017 | 79 | 30 | 0.0 | 8.0 | 0.00 | 0.00 | 0.00 | 79 | 1004.7 |
| 20260905153516 | 79 | 25 | 1.0 | 5.0 | 0.00 | 0.00 | 0.00 | 80 | 1004.6 |
| 20260905153014 | 79 | 58 | 2.0 | 5.0 | 0.00 | 0.00 | 0.00 | 79 | 1004.7 |
| 20260905152616 | 79 | 94 | 3.0 | 5.0 | 0.00 | 0.00 | 0.00 | 79 | 1004.7 |
| 20260905152016 | 79 | 16 | 1.0 | 5.0 | 0.00 | 0.00 | 0.00 | 78 | 1004.7 |
| 20260905151514 | 79 | 81 | 0.0 | 7.0 | 0.00 | 0.00 | 0.00 | 79 | 1004.9 |
| 20260905151014 | 79 | 49 | 2.0 | 7.0 | 0.00 | 0.00 | 0.00 | 78 | 1004.8 |
| 20260905150515 | 79 | 29 | 2.0 | 7.0 | 0.00 | 0.00 | 0.00 | 78 | 1004.9 |
| 20260905150014 | 79 | 33 | 2.0 | 6.0 | 0.00 | 0.00 | 0.00 | 78 | 1005.0 |
| 20260905145516 | 79 | 351 | 3.0 | 5.0 | 0.00 | 0.00 | 0.00 | 78 | 1005.0 |
| 20260905145013 | 79 | 309 | 1.0 | 7.0 | 0.00 | 0.00 | 0.00 | 78 | 1005.0 |
| 20260905144517 | 79 | 336 | 3.0 | 7.0 | 0.00 | 0.00 | 0.00 | 78 | 1005.1 |
| 20260905144012 | 79 | 63 | 0.0 | 5.0 | 0.00 | 0.00 | 0.00 | 79 | 1005.1 |
| 20260905143513 | 79 | 54 | 0.0 | 5.0 | 0.00 | 0.00 | 0.00 | 79 | 1005.1 |
| 20260905143011 | 79 | 23 | 1.0 | 4.0 | 0.00 | 0.00 | 0.00 | 80 | 1005.0 |
| 20260905142511 | 79 | 9 | 0.0 | 5.0 | 0.00 | 0.00 | 0.00 | 80 | 1005.0 |
| 20260905142011 | 79 | 335 | 0.0 | 5.0 | 0.00 | 0.00 | 0.00 | 79 | 1005.0 |
| 20260905141510 | 79 | 326 | 0.0 | 3.0 | 0.00 | 0.00 | 0.00 | 79 | 1004.9 |
| 20260905141014 | 80 | 8 | 0.0 | 4.0 | 0.00 | 0.00 | 0.00 | 79 | 1004.9 |
| 20260905140511 | 80 | 41 | 1.0 | 4.0 | 0.00 | 0.00 | 0.00 | 79 | 1004.9 |
| 20260905140009 | 79 | 299 | 1.0 | 6.0 | 0.00 | 0.00 | 0.00 | 79 | 1004.8 |
| 20260905135509 | 79 | 56 | 1.0 | 7.0 | 0.00 | 0.00 | 0.00 | 79 | 1004.7 |
| 20260905135012 | 79 | 324 | 1.0 | 7.0 | 0.00 | 0.00 | 0.00 | 79 | 1004.6 |
| 20260905134508 | 79 | 4 | 0.0 | 5.0 | 0.00 | 0.00 | 0.00 | 80 | 1004.5 |
| 20260905134007 | 79 | 350 | 2.0 | 5.0 | 0.00 | 0.00 | 0.00 | 80 | 1004.5 |
| 20260905133506 | 79 | 21 | 1.0 | 7.0 | 0.00 | 0.00 | 0.00 | 80 | 1004.5 |
| 20260905133005 | 79 | 58 | 1.0 | 7.0 | 0.00 | 0.00 | 0.00 | 80 | 1004.5 |
| 20260905132504 | 78 | 59 | 1.0 | 7.0 | 0.00 | 0.00 | 0.00 | 81 | 1004.5 |
| 20260905132002 | 78 | 47 | 0.0 | 7.0 | 0.00 | 0.00 | 0.00 | 83 | 1004.5 |
| 20260905131501 | 77 | 68 | 1.0 | 7.0 | 0.00 | 0.00 | 0.00 | 83 | 1004.5 |
| 20260905131059 | 76 | 37 | 0.0 | 3.0 | 0.00 | 0.00 | 0.00 | 84 | 1004.6 |
| 20260905130558 | 76 | 302 | 1.0 | 3.0 | 0.00 | 0.00 | 0.00 | 85 | 1004.5 |
| 20260905130057 | 75 | 39 | 0.0 | 4.0 | 0.00 | 0.00 | 0.00 | 85 | 1004.5 |
| 20260905125554 | 75 | 53 | 1.0 | 4.0 | 0.00 | 0.00 | 0.00 | 85 | 1004.5 |
| 20260905125053 | 75 | 49 | 0.0 | 4.0 | 0.00 | 0.00 | 0.00 | 86 | 1004.4 |
| 20260905124558 | 75 | 344 | 0.0 | 2.0 | 0.00 | 0.00 | 0.00 | 86 | 1004.3 |
| 20260905124051 | 74 | 34 | 0.0 | 3.0 | 0.00 | 0.00 | 0.00 | 87 | 1004.2 |
| 20260905123549 | 74 | 67 | 1.0 | 4.0 | 0.00 | 0.00 | 0.00 | 86 | 1004.3 |
| 20260905123050 | 74 | 32 | 1.0 | 4.0 | 0.00 | 0.00 | 0.00 | 87 | 1004.2 |
| 20260905122548 | 74 | 34 | 0.0 | 3.0 | 0.00 | 0.00 | 0.00 | 87 | 1004.2 |
| 20260905122047 | 73 | 1 | 0.0 | 3.0 | 0.00 | 0.00 | 0.00 | 88 | 1004.2 |
| 20260905121545 | 73 | 49 | 0.0 | 4.0 | 0.00 | 0.00 | 0.00 | 89 | 1004.3 |
| 20260905121047 | 73 | 47 | 1.0 | 5.0 | 0.00 | 0.00 | 0.00 | 89 | 1004.4 |
| 20260905120544 | 72 | 39 | 1.0 | 6.0 | 0.00 | 0.00 | 0.00 | 90 | 1004.4 |
| 20260905120042 | 72 | 15 | 1.0 | 5.0 | 0.00 | 0.00 | 0.00 | 92 | 1004.4 |
| 20260905115546 | 71 | 39 | 0.0 | 5.0 | 0.00 | 0.00 | 0.00 | 93 | 1004.3 |
| 20260905115043 | 70 | 35 | 0.0 | 3.0 | 0.00 | 0.00 | 0.00 | 94 | 1004.4 |
| 20260905114542 | 70 | 345 | 0.0 | 1.0 | 0.00 | 0.00 | 0.00 | 94 | 1004.2 |
| 20260905114042 | 70 | 325 | 0.0 | 1.0 | 0.00 | 0.00 | 0.00 | 94 | 1004.3 |
| 20260905113545 | 69 | 259 | 0.0 | 1.0 | 0.00 | 0.00 | 0.00 | 94 | 1004.4 |
| 20260905113048 | 69 | 259 | 0.0 | 0.0 | 0.00 | 0.00 | 0.00 | 94 | 1004.3 |
| 20260905112541 | 69 | 259 | 0.0 | 0.0 | 0.00 | 0.00 | 0.00 | 94 | 1004.3 |
| 20260905112045 | 69 | 259 | 0.0 | 0.0 | 0.00 | 0.00 | 0.00 | 94 | 1004.2 |
| 20260905111540 | 69 | 259 | 0.0 | 0.0 | 0.00 | 0.00 | 0.00 | 94 | 1004.3 |
| 20260905111041 | 68 | 259 | 0.0 | 0.0 | 0.00 | 0.00 | 0.00 | 94 | 1004.1 |
| 20260905110540 | 68 | 259 | 0.0 | 0.0 | 0.00 | 0.00 | 0.00 | 94 | 1003.8 |
| 20260905110040 | 68 | 259 | 0.0 | 0.0 | 0.00 | 0.00 | 0.00 | 93 | 1003.7 |
| 20260905105540 | 68 | 259 | 0.0 | 0.0 | 0.00 | 0.00 | 0.00 | 94 | 1003.7 |
| 20260905105015 | 68 | 259 | 0.0 | 0.0 | 0.00 | 0.00 | 0.00 | 93 | 1003.8 |
| 20260905104538 | 68 | 259 | 0.0 | 0.0 | 0.00 | 0.00 | 0.00 | 93 | 1003.7 |
| 20260905104038 | 68 | 259 | 0.0 | 0.0 | 0.00 | 0.00 | 0.00 | 93 | 1003.5 |
| 20260905103537 | 69 | 259 | 0.0 | 0.0 | 0.00 | 0.00 | 0.00 | 93 | 1003.6 |
| 20260905103044 | 69 | 259 | 0.0 | 0.0 | 0.00 | 0.00 | 0.00 | 93 | 1003.6 |
| 20260905102536 | 69 | 259 | 0.0 | 0.0 | 0.00 | 0.00 | 0.00 | 93 | 1003.5 |
| 20260905102035 | 69 | 259 | 0.0 | 0.0 | 0.00 | 0.00 | 0.00 | 93 | 1003.5 |
| 20260905101536 | 69 | 259 | 0.0 | 0.0 | 0.00 | 0.00 | 0.00 | 93 | 1003.4 |
| 20260905101035 | 69 | 259 | 0.0 | 0.0 | 0.00 | 0.00 | 0.00 | 93 | 1003.4 |
| 20260905100535 | 69 | 259 | 0.0 | 0.0 | 0.00 | 0.00 | 0.00 | 93 | 1003.5 |
| 20260905100039 | 69 | 259 | 0.0 | 1.0 | 0.00 | 0.00 | 0.00 | 93 | 1003.4 |
| 20260905095534 | 69 | 259 | 0.0 | 1.0 | 0.00 | 0.00 | 0.00 | 93 | 1003.3 |
| 20260905095034 | 69 | 234 | 0.0 | 0.0 | 0.00 | 0.00 | 0.00 | 93 | 1003.3 |
| 20260905094534 | 69 | 231 | 0.0 | 0.0 | 0.00 | 0.00 | 0.00 | 93 | 1003.2 |
| 20260905094034 | 69 | 231 | 0.0 | 0.0 | 0.00 | 0.00 | 0.00 | 93 | 1003.0 |
| 20260905093533 | 70 | 231 | 0.0 | 0.0 | 0.00 | 0.00 | 0.00 | 93 | 1003.0 |
| 20260905093046 | 70 | 231 | 0.0 | 0.0 | 0.00 | 0.00 | 0.00 | 93 | 1003.0 |
| 20260905092533 | 70 | 231 | 0.0 | 0.0 | 0.00 | 0.00 | 0.00 | 93 | 1003.0 |
| 20260905092032 | 70 | 231 | 0.0 | 0.0 | 0.00 | 0.00 | 0.00 | 93 | 1003.0 |
| 20260905091532 | 70 | 231 | 0.0 | 0.0 | 0.00 | 0.00 | 0.00 | 93 | 1003.1 |
| 20260905091031 | 70 | 231 | 0.0 | 0.0 | 0.00 | 0.00 | 0.00 | 93 | 1003.0 |
| 20260905090531 | 70 | 231 | 0.0 | 0.0 | 0.00 | 0.00 | 0.00 | 93 | 1003.0 |
| 20260905090035 | 70 | 231 | 0.0 | 0.0 | 0.00 | 0.00 | 0.00 | 93 | 1003.1 |
| 20260905085531 | 70 | 231 | 0.0 | 0.0 | 0.00 | 0.00 | 0.00 | 93 | 1003.2 |
| 20260905085030 | 70 | 231 | 0.0 | 0.0 | 0.00 | 0.00 | 0.00 | 93 | 1003.2 |
| 20260905084529 | 70 | 231 | 0.0 | 0.0 | 0.00 | 0.00 | 0.00 | 93 | 1003.2 |
| 20260905084030 | 70 | 231 | 0.0 | 0.0 | 0.00 | 0.00 | 0.00 | 92 | 1003.3 |
| 20260905083528 | 70 | 231 | 0.0 | 0.0 | 0.00 | 0.00 | 0.00 | 92 | 1003.3 |
| 20260905083027 | 70 | 231 | 0.0 | 0.0 | 0.00 | 0.00 | 0.00 | 92 | 1003.4 |
| 20260905082526 | 70 | 231 | 0.0 | 0.0 | 0.00 | 0.00 | 0.00 | 92 | 1003.5 |
| 20260905082026 | 71 | 231 | 0.0 | 0.0 | 0.00 | 0.00 | 0.00 | 92 | 1003.5 |
| 20260905081524 | 71 | 231 | 0.0 | 0.0 | 0.00 | 0.00 | 0.00 | 92 | 1003.4 |
| 20260905081024 | 71 | 231 | 0.0 | 1.0 | 0.00 | 0.00 | 0.00 | 92 | 1003.4 |
| 20260905080525 | 71 | 231 | 0.0 | 1.0 | 0.00 | 0.00 | 0.00 | 92 | 1003.5 |
| 20260905080023 | 71 | 285 | 0.0 | 1.0 | 0.00 | 0.00 | 0.00 | 92 | 1003.6 |
| 20260905075523 | 71 | 307 | 0.0 | 2.0 | 0.00 | 0.00 | 0.00 | 92 | 1003.7 |
| 20260905075022 | 71 | 285 | 0.0 | 2.0 | 0.00 | 0.00 | 0.00 | 92 | 1003.6 |
| 20260905074523 | 71 | 293 | 0.0 | 2.0 | 0.00 | 0.00 | 0.00 | 92 | 1003.7 |
| 20260905074022 | 71 | 288 | 0.0 | 3.0 | 0.00 | 0.00 | 0.00 | 92 | 1003.6 |
| 20260905073524 | 71 | 295 | 0.0 | 3.0 | 0.00 | 0.00 | 0.00 | 92 | 1003.8 |
| 20260905073020 | 71 | 307 | 1.0 | 2.0 | 0.00 | 0.00 | 0.00 | 92 | 1003.7 |
| 20260905072520 | 71 | 311 | 0.0 | 4.0 | 0.00 | 0.00 | 0.00 | 92 | 1003.8 |
| 20260905072020 | 71 | 330 | 1.0 | 3.0 | 0.00 | 0.00 | 0.00 | 92 | 1003.8 |
| 20260905071520 | 71 | 308 | 0.0 | 3.0 | 0.00 | 0.00 | 0.00 | 91 | 1003.8 |
| 20260905071021 | 71 | 286 | 0.0 | 2.0 | 0.00 | 0.00 | 0.00 | 91 | 1003.9 |
| 20260905070520 | 71 | 281 | 0.0 | 2.0 | 0.00 | 0.00 | 0.00 | 91 | 1003.8 |
| 20260905070024 | 71 | 285 | 0.0 | 1.0 | 0.00 | 0.00 | 0.00 | 91 | 1003.9 |
| 20260905065517 | 71 | 287 | 0.0 | 1.0 | 0.00 | 0.00 | 0.00 | 91 | 1003.8 |
| 20260905065018 | 71 | 288 | 0.0 | 1.0 | 0.00 | 0.00 | 0.00 | 91 | 1004.0 |
| 20260905064515 | 71 | 239 | 0.0 | 2.0 | 0.00 | 0.00 | 0.00 | 91 | 1004.1 |
| 20260905064015 | 71 | 233 | 0.0 | 2.0 | 0.00 | 0.00 | 0.00 | 91 | 1004.1 |
| 20260905063513 | 71 | 283 | 0.0 | 3.0 | 0.00 | 0.00 | 0.00 | 90 | 1004.2 |
| 20260905063012 | 71 | 240 | 0.0 | 3.0 | 0.00 | 0.00 | 0.00 | 90 | 1004.4 |
| 20260905062512 | 71 | 279 | 0.0 | 3.0 | 0.00 | 0.00 | 0.00 | 90 | 1004.3 |
| 20260905062011 | 72 | 318 | 0.0 | 5.0 | 0.00 | 0.00 | 0.00 | 91 | 1004.4 |
| 20260905061512 | 71 | 300 | 1.0 | 5.0 | 0.00 | 0.00 | 0.00 | 91 | 1004.5 |
| 20260905061013 | 71 | 271 | 1.0 | 5.0 | 0.00 | 0.00 | 0.00 | 91 | 1004.5 |
| 20260905060511 | 71 | 314 | 1.0 | 4.0 | 0.00 | 0.00 | 0.00 | 91 | 1004.7 |
| 20260905060011 | 71 | 314 | 1.0 | 3.0 | 0.00 | 0.00 | 0.00 | 91 | 1004.8 |
| 20260905055510 | 71 | 244 | 0.0 | 5.0 | 0.00 | 0.16 | 0.00 | 91 | 1004.9 |
| 20260905055008 | 71 | 263 | 1.0 | 5.0 | 0.00 | 0.16 | 0.00 | 91 | 1004.8 |
| 20260905054508 | 71 | 245 | 1.0 | 5.0 | 0.00 | 0.16 | 0.00 | 91 | 1004.9 |
| 20260905054007 | 71 | 236 | 1.0 | 7.0 | 0.00 | 0.16 | 0.00 | 91 | 1004.9 |
| 20260905053507 | 71 | 238 | 2.0 | 7.0 | 0.00 | 0.16 | 0.00 | 91 | 1004.9 |
| 20260905053006 | 72 | 212 | 2.0 | 6.0 | 0.00 | 0.16 | 0.00 | 91 | 1005.0 |
| 20260905052504 | 72 | 235 | 3.0 | 6.0 | 0.00 | 0.16 | 0.00 | 91 | 1005.0 |
| 20260905052006 | 72 | 251 | 1.0 | 5.0 | 0.00 | 0.16 | 0.00 | 91 | 1005.1 |
| 20260905051502 | 72 | 232 | 2.0 | 5.0 | 0.00 | 0.16 | 0.00 | 91 | 1005.1 |
| 20260905051002 | 72 | 240 | 2.0 | 5.0 | 0.00 | 0.16 | 0.00 | 91 | 1005.2 |
| 20260905050501 | 72 | 233 | 0.0 | 2.0 | 0.00 | 0.16 | 0.00 | 91 | 1005.2 |
| 20260905045559 | 72 | 241 | 0.0 | 2.0 | 0.00 | 0.18 | 0.00 | 91 | 1005.4 |
| 20260905045059 | 72 | 242 | 0.0 | 3.0 | 0.00 | 0.18 | 0.00 | 91 | 1005.4 |
| 20260905044600 | 72 | 174 | 1.0 | 3.0 | 0.00 | 0.18 | 0.00 | 91 | 1005.3 |
| 20260905044100 | 72 | 198 | 0.0 | 2.0 | 0.00 | 0.18 | 0.00 | 91 | 1005.2 |
| 20260905043600 | 72 | 239 | 0.0 | 1.0 | 0.00 | 0.18 | 0.00 | 91 | 1005.2 |
| 20260905043059 | 72 | 282 | 0.0 | 1.0 | 0.00 | 0.18 | 0.00 | 91 | 1005.3 |
| 20260905042555 | 72 | 258 | 0.0 | 1.0 | 0.00 | 0.18 | 0.00 | 91 | 1005.3 |
| 20260905042057 | 72 | 227 | 0.0 | 3.0 | 0.00 | 0.18 | 0.00 | 91 | 1005.5 |
| 20260905041553 | 72 | 244 | 0.0 | 3.0 | 0.00 | 0.18 | 0.00 | 91 | 1005.6 |
| 20260905041051 | 72 | 252 | 0.0 | 2.0 | 0.00 | 0.18 | 0.00 | 91 | 1005.7 |
| 20260905040551 | 72 | 290 | 0.0 | 2.0 | 0.00 | 0.18 | 0.00 | 91 | 1005.7 |
| 20260905040056 | 72 | 238 | 0.0 | 1.0 | 0.00 | 0.18 | 0.00 | 91 | 1005.7 |
| 20260905035549 | 72 | 218 | 0.0 | 0.0 | 0.00 | 0.18 | 0.18 | 91 | 1005.7 |
| 20260905035051 | 72 | 227 | 0.0 | 0.0 | 0.00 | 0.18 | 0.18 | 91 | 1005.7 |
| 20260905034551 | 72 | 227 | 0.0 | 0.0 | 0.00 | 0.18 | 0.18 | 91 | 1005.7 |
| 20260905034049 | 72 | 227 | 0.0 | 0.0 | 0.00 | 0.18 | 0.18 | 91 | 1005.6 |
| 20260905033549 | 73 | 230 | 0.0 | 2.0 | 0.00 | 0.18 | 0.18 | 91 | 1005.6 |
| 20260905033051 | 73 | 229 | 0.0 | 2.0 | 0.00 | 0.18 | 0.18 | 91 | 1005.5 |
| 20260905032549 | 73 | 233 | 0.0 | 2.0 | 0.00 | 0.18 | 0.18 | 90 | 1005.5 |
| 20260905032048 | 73 | 230 | 0.0 | 2.0 | 0.00 | 0.18 | 0.18 | 90 | 1005.5 |
| 20260905031551 | 73 | 231 | 0.0 | 2.0 | 0.00 | 0.18 | 0.18 | 90 | 1005.5 |
| 20260905031048 | 73 | 231 | 0.0 | 1.0 | 0.00 | 0.18 | 0.18 | 90 | 1005.4 |
| 20260905030548 | 73 | 228 | 0.0 | 1.0 | 0.00 | 0.18 | 0.18 | 90 | 1005.5 |
| 20260905030059 | 73 | 229 | 0.0 | 0.0 | 0.00 | 0.18 | 0.18 | 90 | 1005.5 |
| 20260905025548 | 73 | 228 | 0.0 | 1.0 | 0.00 | 0.18 | 0.18 | 90 | 1005.3 |
| 20260905025048 | 73 | 224 | 0.0 | 1.0 | 0.00 | 0.18 | 0.18 | 90 | 1005.4 |
| 20260905024548 | 73 | 224 | 0.0 | 1.0 | 0.00 | 0.18 | 0.18 | 90 | 1005.5 |
| 20260905024047 | 73 | 229 | 0.0 | 1.0 | 0.00 | 0.18 | 0.18 | 90 | 1005.6 |
| 20260905023550 | 73 | 231 | 0.0 | 1.0 | 0.00 | 0.18 | 0.18 | 90 | 1005.6 |
| 20260905023047 | 73 | 231 | 0.0 | 1.0 | 0.00 | 0.18 | 0.18 | 90 | 1005.8 |
| 20260905022548 | 73 | 233 | 0.0 | 1.0 | 0.00 | 0.18 | 0.18 | 90 | 1005.8 |
| 20260905022046 | 73 | 233 | 0.0 | 1.0 | 0.00 | 0.18 | 0.18 | 90 | 1005.6 |
| 20260905021547 | 73 | 236 | 0.0 | 1.0 | 0.00 | 0.18 | 0.18 | 90 | 1005.5 |
| 20260905021045 | 73 | 236 | 0.0 | 1.0 | 0.00 | 0.18 | 0.18 | 90 | 1005.5 |
| 20260905020545 | 73 | 226 | 0.0 | 1.0 | 0.00 | 0.18 | 0.18 | 90 | 1005.7 |
| 20260905020050 | 74 | 208 | 0.0 | 1.0 | 0.00 | 0.18 | 0.18 | 89 | 1005.5 |
| 20260905015546 | 74 | 206 | 0.0 | 2.0 | 0.00 | 0.18 | 0.18 | 89 | 1005.5 |
| 20260905015048 | 74 | 203 | 0.0 | 2.0 | 0.00 | 0.18 | 0.18 | 88 | 1005.2 |
| 20260905014546 | 74 | 202 | 0.0 | 0.0 | 0.00 | 0.18 | 0.18 | 88 | 1005.3 |
| 20260905014045 | 74 | 238 | 0.0 | 0.0 | 0.00 | 0.18 | 0.18 | 88 | 1005.3 |
| 20260905013547 | 74 | 238 | 0.0 | 0.0 | 0.00 | 0.18 | 0.18 | 88 | 1005.2 |
| 20260905013050 | 74 | 238 | 0.0 | 0.0 | 0.00 | 0.18 | 0.18 | 87 | 1005.1 |
| 20260905012544 | 74 | 238 | 0.0 | 1.0 | 0.00 | 0.18 | 0.18 | 87 | 1005.1 |